Temp
0 0 -0 -0 -1 -1 -1 -1 -1 -1 -2 -2 -1 -2 -2 -2 -1 -1 -1 -1 -1 -1 -2 -2 -2 -2 -1 -1 -2 0 -1 -1 -1 -1 -1 -2 -1 -2 -5 -5 -6 -5 -3 -5 -5 -4 -4
-0 -1 -1 -1 -2 -2 -2 -3 -3 -3 -4 -5 -5 -3 -3 -3 -3 -2 -2 -1 -3 -3 -3 -2 -2 -2 -2 -1 -1 -1 -1 -2 -2 -2 -2 -2 -2 -4 -4 -4 -5 -4 -5 -5 -5 -5 -4
-1 -2 -2 -2 -3 -3 -3 -3 -4 -5 -5 -5 -6 -6 -5 -4 -4 -3 -3 -3 -3 -2 -2 -2 -2 -2 -2 -3 -2 -2 -2 -2 -2 -3 -3 -3 -3 -4 -4 -4 -5 -4 -5 -5 -4 -4 -4
-3 -3 -3 -3 -4 -4 -4 -5 -5 -5 -5 -5 -6 -6 -6 -6 -4 -4 -3 -3 -3 -3 -3 -3 -2 -3 -2 -2 -3 -3 -3 -3 -3 -3 -3 -3 -4 -3 -4 -5 -4 -5 -5 -5 -2 -4 -4
-3 -3 -4 -4 -4 -5 -5 -6 -6 -5 -6 -6 -6 -6 -6 -7 -6 -5 -4 -3 -3 -3 -4 -3 -2 -3 -3 -2 -3 -3 -3 -3 -3 -3 -3 -4 -4 -4 -5 -5 -5 -5 -5 -4 -4 -3 -4
-5 -5 -5 -6 -6 -6 -6 -6 -7 -7 -7 -6 -7 -7 -7 -7 -6 -6 -5 -5 -4 -4 -4 -4 -4 -4 -4 -3 -4 -3 -3 -4 -4 -4 -5 -5 -5 -5 -5 -6 -5 -4 -4 -4 -3 -3 -3
-4 -4 -5 -5 -6 -6 -7 -7 -7 -8 -6 -7 -7 -7 -8 -7 -7 -7 -6 -5 -5 -5 -4 -4 -4 -5 -4 -4 -4 -4 -4 -4 -4 -4 -5 -5 -5 -5 -4 -5 -5 -5 -5 -4 -3 -3 -3
-4 -5 -5 -5 -5 -6 -7 -8 -8 -8 -8 -8 -8 -8 -7 -7 -7 -7 -6 -7 -7 -5 -5 -5 -4 -4 -4 -5 -4 -4 -4 -5 -4 -6 -5 -5 -4 -5 -5 -4 -5 -5 -4 -4 -3 -3 -2
-4 -4 -5 -5 -5 -6 -7 -8 -8 -8 -8 -8 -8 -8 -8 -7 -7 -7 -6 -6 -5 -6 -6 -5 -5 -5 -5 -5 -5 -4 -5 -5 -5 -6 -6 -5 -4 -4 -4 -4 -4 -5 -5 -4 -3 -3 -3
-4 -5 -6 -5 -6 -7 -7 -7 -8 -8 -8 -8 -8 -8 -7 -8 -7 -7 -7 -6 -6 -5 -5 -5 -5 -5 -5 -5 -5 -5 -5 -5 -6 -5 -5 -5 -4 -4 -4 -4 -4 -4 -3 -3 -3 -3 -2
-5 -5 -5 -5 -6 -7 -6 -7 -7 -7 -7 -7 -7 -7 -8 -8 -7 -7 -7 -7 -7 -6 -4 -5 -6 -6 -6 -6 -6 -5 -5 -5 -5 -5 -5 -4 -4 -4 -3 -3 -3 -3 -2 -3 -3 -3 -3
-5 -5 -5 -6 -7 -7 -6 -7 -7 -7 -7 -6 -7 -7 -7 -7 -7 -7 -7 -7 -6 -6 -4 -6 -6 -6 -5 -5 -5 -5 -5 -5 -5 -5 -5 -4 -4 -4 -4 -4 -3 -3 -2 -2 -2 -3 -1
-5 -6 -6 -7 -8 -8 -8 -8 -8 -7 -7 -7 -7 -8 -7 -7 -7 -8 -7 -7 -6 -5 -5 -6 -6 -5 -5 -5 -5 -5 -5 -5 -5 -5 -4 -3 -3 -4 -3 -3 -2 -3 -3 -2 -2 -1 -1
-6 -6 -6 -8 -8 -8 -8 -8 -8 -8 -8 -8 -8 -7 -6 -7 -8 -8 -7 -7 -6 -5 -5 -6 -5 -5 -5 -5 -5 -5 -5 -4 -4 -5 -4 -3 -3 -4 -3 -3 -3 -3 -3 -2 -1 -1 -1
-6 -6 -6 -7 -7 -8 -8 -8 -7 -8 -8 -9 -8 -7 -7 -7 -8 -8 -6 -6 -6 -6 -6 -5 -5 -5 -5 -5 -5 -5 -4 -4 -4 -4 -4 -3 -3 -3 -3 -3 -3 -2 -2 -2 -3 -1 -1
-5 -6 -6 -6 -6 -7 -8 -8 -7 -8 -8 -8 -8 -8 -8 -7 -7 -7 -6 -6 -6 -5 -5 -5 -4 -4 -4 -4 -4 -4 -4 -4 -4 -4 -3 -3 -3 -3 -3 -3 -2 -1 -1 -1 -0 -0 -0
-4 -5 -6 -6 -6 -6 -7 -7 -7 -7 -7 -7 -7 -7 -7 -6 -6 -6 -7 -6 -6 -5 -5 -5 -4 -3 -3 -3 -4 -4 -3 -3 -3 -3 -3 -3 -3 -3 -3 -2 -2 -1 -1 -0 0 1 -0
-5 -5 -6 -5 -5 -5 -6 -6 -6 -6 -6 -6 -6 -6 -6 -6 -6 -6 -7 -6 -5 -5 -5 -4 -4 -3 -3 -3 -4 -3 -3 -3 -3 -3 -3 -3 -3 -3 -2 -1 -1 -1 -1 -0 1 1 1
-3 -5 -5 -5 -5 -5 -5 -5 -5 -5 -5 -5 -4 -5 -5 -6 -6 -6 -6 -6 -5 -5 -5 -4 -4 -4 -3 -3 -3 -3 -3 -3 -3 -3 -3 -3 -2 -2 -1 -1 -1 -1 -0 1 2 2 2
-2 -3 -4 -4 -3 -4 -4 -4 -4 -4 -4 -4 -4 -6 -6 -6 -6 -6 -6 -5 -6 -5 -4 -4 -4 -3 -3 -3 -3 -3 -3 -3 -2 -2 -3 -3 -3 -3 -2 -2 -2 -1 -0 1 2 1 -1
-1 -3 -4 -3 -2 -2 -3 -4 -4 -3 -3 -4 -4 -5 -6 -6 -6 -6 -6 -5 -6 -4 -4 -4 -3 -4 -3 -3 -3 -2 -2 -2 -2 -2 -2 -2 -2 -3 -2 -2 -1 -1 -0 0 1 0 -1
-1 -2 -3 -2 -1 -0 -1 -1 -2 -3 -3 -4 -3 -5 -5 -5 -6 -5 -5 -6 -5 -4 -4 -4 -4 -3 -3 -2 -3 -3 -3 -2 -2 -2 -2 -2 -2 -2 -1 -1 -1 -1 -1 -0 0 0 -0
0 -2 -2 -2 -0 0 0 -0 -2 -3 -3 -4 -3 -4 -4 -5 -5 -5 -5 -5 -4 -4 -4 -4 -4 -3 -3 -2 -2 -2 -2 -2 -2 -1 -1 -1 -1 -1 -1 -1 -1 -0 -1 -0 -0 -0 -0
2 -1 -1 -2 -1 0 0 -0 -1 -2 -3 -3 -4 -3 -5 -4 -4 -5 -4 -4 -4 -4 -4 -4 -3 -3 -3 -2 -2 -2 -2 -1 -1 -1 -1 -2 -2 -1 -1 -0 -3 -1 -1 -0 -0 -0 -0
2 1 -0 -1 -1 -1 -1 0 -0 -1 -2 -2 -2 -3 -5 -4 -4 -4 -4 -4 -4 -4 -4 -3 -4 -3 -3 -3 -3 -3 -2 -2 -2 -1 -1 -1 -2 -2 -1 -0 -1 -0 -0 -0 -0 -0 -0
2 2 2 0 0 1 -0 -1 -0 -1 -2 -1 -1 -2 -3 -3 -3 -3 -4 -4 -4 -3 -3 -3 -3 -4 -3 -3 -3 -3 -2 -3 -2 -2 -2 -2 -2 -2 -2 -1 -1 -1 -0 -0 -1 -0 -1
1 2 2 1 -0 0 1 -0 -1 -1 -1 -1 -1 -1 -1 -1 -2 -2 -3 -3 -2 -3 -3 -3 -3 -3 -4 -3 -3 -3 -2 -3 -3 -3 -3 -3 -3 -2 -2 -2 -1 -0 -0 -1 -1 -0 -0
1 1 1 2 1 1 1 0 -0 -0 -0 -0 -1 -1 -1 -1 -1 -1 -1 -2 -3 -3 -3 -3 -3 -3 -4 -3 -3 -3 -3 -3 -3 -3 -3 -3 -3 -3 -2 -2 -3 -1 -1 -1 -0 -0 -0
1 1 1 1 2 1 0 0 1 1 -0 -2 -2 -2 -1 -1 -1 -1 -1 -2 -2 -2 -2 -2 -3 -3 -4 -4 -4 -3 -4 -3 -3 -3 -2 -3 -3 -2 -2 -2 -1 -1 -1 -1 -1 -1 -1
Height
3089 3084 3079 3074 3068 3062 3057 3052 3047 3043 3040 3036 3034 3031 3029 3028 3028 3028 3029 3031 3034 3037 3038 3038 3042 3045 3044 3044 3043 3043 3042 3042 3044 3043 3042 3041 3043 3041 3039 3041 3043 3039 3039 3040 3041 3041 3041
3083 3078 3072 3066 3060 3054 3050 3045 3041 3036 3032 3029 3026 3023 3021 3019 3019 3020 3021 3023 3026 3029 3032 3034 3036 3038 3040 3040 3038 3038 3037 3039 3039 3039 3038 3038 3039 3038 3035 3037 3038 3036 3034 3033 3034 3035 3036
3078 3072 3066 3060 3054 3048 3043 3038 3033 3029 3025 3022 3019 3016 3014 3013 3011 3013 3014 3016 3019 3022 3027 3028 3029 3028 3032 3035 3034 3034 3033 3034 3035 3036 3036 3036 3035 3034 3032 3034 3035 3033 3030 3030 3029 3029 3029
3073 3067 3059 3052 3046 3041 3036 3031 3026 3022 3019 3016 3011 3009 3008 3007 3005 3006 3008 3010 3013 3016 3020 3020 3023 3025 3026 3029 3029 3029 3030 3031 3033 3033 3034 3034 3033 3032 3031 3034 3034 3032 3031 3027 3023 3024 3025
3065 3058 3051 3045 3040 3033 3027 3022 3019 3013 3009 3006 3003 3002 3002 3001 3000 3001 3003 3005 3008 3012 3014 3015 3020 3021 3022 3024 3024 3025 3027 3029 3030 3031 3031 3032 3032 3031 3032 3032 3032 3031 3025 3025 3021 3021 3020
3061 3053 3045 3036 3027 3024 3017 3012 3004 3000 2997 2995 2994 2993 2994 2996 2996 2997 2999 3001 3003 3007 3008 3012 3015 3018 3017 3019 3021 3023 3025 3027 3028 3029 3030 3031 3030 3030 3032 3031 3028 3027 3027 3022 3018 3017 3012
3056 3048 3039 3028 3019 3012 3007 2998 2994 2990 2984 2985 2985 2985 2987 2990 2992 2993 2995 2996 3001 3000 3004 3009 3012 3013 3013 3016 3018 3020 3022 3025 3026 3027 3028 3027 3027 3028 3029 3028 3027 3026 3024 3018 3013 3014 3006
3050 3040 3032 3024 3013 3006 2996 2991 2985 2981 2977 2978 2980 2981 2984 2986 2988 2989 2990 2993 2996 3002 3003 3004 3007 3010 3010 3013 3016 3018 3022 3025 3024 3025 3026 3026 3025 3026 3024 3024 3023 3022 3020 3015 3012 3010 3007
3045 3036 3029 3021 3011 2999 2989 2983 2979 2974 2974 2974 2975 2977 2980 2982 2984 2986 2987 2991 2995 2997 3002 3003 3005 3006 3009 3012 3014 3017 3021 3022 3023 3025 3025 3025 3024 3023 3021 3020 3018 3017 3017 3015 3012 3009 3008
3040 3031 3024 3014 3004 2993 2984 2979 2974 2970 2968 2970 2971 2972 2975 2980 2984 2983 2983 2988 2993 2995 3000 3002 3002 3004 3007 3010 3014 3016 3018 3021 3022 3023 3024 3024 3021 3020 3020 3019 3019 3017 3016 3011 3008 3008 3004
3037 3028 3017 3010 3001 2990 2982 2975 2970 2968 2966 2967 2968 2969 2974 2980 2981 2984 2987 2986 2990 2995 2998 3002 3001 3003 3006 3011 3015 3015 3017 3019 3021 3023 3024 3023 3020 3019 3018 3017 3017 3014 3012 3008 3007 3004 3003
3034 3024 3016 3008 3000 2990 2980 2974 2971 2968 2967 2967 2967 2970 2977 2980 2982 2985 2987 2988 2992 2998 2995 3000 3002 3004 3008 3010 3013 3014 3016 3019 3020 3020 3020 3019 3019 3019 3017 3015 3013 3012 3009 3005 3003 3002 2997
3030 3021 3015 3007 3000 2992 2985 2978 2976 2973 2971 2972 2972 2976 2980 2980 2984 2986 2988 2990 2995 2994 2998 3003 3004 3006 3009 3011 3013 3015 3017 3019 3020 3021 3019 3018 3018 3018 3015 3013 3011 3011 3011 3007 3002 2997 2997
3029 3021 3015 3005 2999 2995 2989 2985 2982 2978 2976 2977 2979 2981 2982 2984 2986 2988 2990 2993 2992 2996 2998 3003 3006 3008 3010 3013 3015 3016 3019 3020 3020 3022 3020 3018 3019 3017 3014 3013 3013 3012 3012 3008 3002 2999 2997
3028 3022 3014 3005 3001 2997 2992 2989 2987 2984 2982 2980 2981 2983 2985 2986 2989 2991 2995 2994 2996 2999 3003 3006 3010 3012 3014 3015 3016 3017 3019 3021 3022 3021 3021 3018 3017 3016 3014 3012 3015 3012 3010 3008 3004 3001 3002
3029 3023 3014 3006 3002 2998 2994 2992 2990 2989 2987 2986 2985 2987 2989 2990 2992 2996 2998 2997 3000 3003 3006 3009 3011 3014 3016 3017 3018 3018 3021 3022 3022 3021 3020 3019 3017 3015 3015 3014 3015 3013 3013 3009 3006 3004 3005
3030 3023 3016 3009 3004 3000 2996 2994 2993 2992 2991 2992 2992 2993 2993 2995 2999 3001 3001 3002 3005 3007 3010 3010 3013 3016 3018 3018 3019 3019 3022 3023 3022 3021 3019 3017 3017 3018 3016 3017 3017 3017 3015 3013 3010 3007 3008
3031 3023 3016 3012 3007 3004 3000 2998 2997 2997 2995 2996 2995 2995 2997 3001 3004 3004 3006 3006 3009 3011 3013 3014 3016 3019 3021 3021 3022 3022 3023 3023 3022 3020 3019 3018 3019 3019 3020 3020 3020 3019 3017 3015 3012 3012 3010
3032 3025 3017 3012 3009 3007 3004 3001 3001 3000 2999 2999 2999 3000 3002 3005 3007 3009 3010 3011 3013 3014 3017 3017 3019 3022 3023 3024 3025 3024 3025 3025 3024 3023 3024 3023 3023 3022 3022 3024 3023 3022 3019 3016 3015 3015 3015
3033 3027 3020 3013 3010 3008 3008 3005 3004 3005 3005 3005 3003 3004 3007 3008 3010 3012 3014 3015 3017 3019 3020 3021 3022 3025 3027 3027 3027 3027 3028 3028 3026 3026 3026 3024 3024 3025 3026 3027 3026 3026 3023 3020 3018 3018 3021
3036 3030 3023 3018 3014 3011 3008 3007 3008 3007 3008 3010 3008 3010 3010 3012 3013 3015 3016 3018 3020 3022 3024 3025 3027 3028 3030 3030 3030 3030 3030 3031 3030 3030 3028 3028 3027 3028 3028 3028 3028 3028 3026 3026 3024 3026 3027
3040 3032 3025 3021 3017 3014 3014 3012 3011 3012 3012 3013 3012 3012 3013 3014 3016 3017 3019 3021 3024 3025 3026 3028 3030 3031 3030 3032 3033 3034 3034 3034 3033 3033 3031 3031 3033 3031 3030 3030 3031 3030 3030 3030 3031 3033 3034
3045 3036 3030 3023 3020 3019 3017 3017 3015 3016 3017 3017 3017 3016 3016 3017 3018 3020 3021 3023 3025 3027 3029 3030 3031 3033 3033 3034 3034 3035 3035 3035 3035 3035 3034 3034 3033 3033 3032 3032 3031 3034 3034 3035 3036 3038 3040
3046 3039 3033 3030 3024 3021 3021 3020 3020 3020 3020 3020 3021 3020 3019 3020 3020 3021 3023 3024 3026 3028 3030 3032 3033 3033 3036 3035 3034 3037 3036 3036 3035 3035 3034 3034 3035 3034 3035 3034 3037 3036 3036 3037 3038 3040 3041
3046 3043 3036 3034 3031 3024 3022 3022 3023 3022 3023 3023 3022 3021 3020 3021 3020 3021 3024 3026 3028 3030 3032 3034 3035 3036 3036 3037 3037 3038 3038 3038 3037 3036 3036 3036 3036 3037 3036 3036 3038 3036 3037 3038 3039 3041 3041
3044 3043 3041 3038 3035 3031 3026 3025 3024 3023 3024 3024 3024 3023 3022 3022 3023 3022 3024 3026 3028 3030 3033 3034 3036 3036 3038 3039 3039 3040 3039 3039 3039 3037 3036 3036 3036 3037 3037 3038 3037 3035 3036 3037 3038 3039 3039
3043 3041 3040 3038 3037 3036 3033 3029 3026 3023 3024 3024 3024 3023 3022 3023 3023 3023 3024 3026 3028 3030 3032 3034 3036 3037 3038 3039 3040 3040 3040 3040 3040 3039 3038 3037 3036 3036 3037 3037 3034 3033 3034 3035 3038 3042 3037
3042 3040 3037 3038 3037 3036 3033 3032 3031 3027 3024 3024 3024 3023 3024 3025 3025 3024 3025 3026 3028 3031 3033 3035 3037 3036 3038 3039 3040 3040 3039 3037 3037 3036 3036 3037 3037 3036 3036 3036 3034 3030 3031 3034 3035 3035 3036
3040 3038 3036 3035 3035 3034 3033 3032 3032 3031 3026 3024 3025 3024 3024 3025 3027 3026 3026 3027 3029 3031 3033 3034 3035 3035 3036 3038 3039 3038 3038 3036 3035 3034 3033 3034 3034 3034 3034 3031 3029 3029 3029 3031 3032 3032 3034
Wind_Speed
39 39 39 40 41 41 41 41 42 42 39 38 35 33 30 28 27 27 27 29 28 33 37 28 26 24 20 18 17 13 17 17 15 15 15 14 14 17 16 16 15 23 27 26 25 28 31
41 42 43 43 44 44 45 45 45 41 36 30 29 28 28 27 25 23 23 23 26 27 28 25 28 25 20 19 17 17 17 15 14 12 12 14 15 15 19 18 19 21 19 21 22 26 30
42 42 43 44 44 41 38 39 40 40 34 28 26 29 27 21 22 20 20 20 21 28 28 26 24 22 23 17 19 16 16 14 11 10 11 12 14 16 18 11 8 12 20 23 26 29 33
41 44 44 41 36 38 40 37 38 37 34 32 30 26 20 20 19 16 17 18 20 28 27 15 24 15 16 14 17 13 14 12 10 9 10 9 11 14 9 8 13 13 19 29 19 13 23
43 41 42 43 47 42 44 39 55 42 30 32 28 24 21 16 19 13 10 13 15 22 29 21 26 21 15 14 15 14 12 9 8 8 8 8 8 7 7 8 13 12 22 19 25 18 24
40 44 44 44 44 45 39 62 40 33 33 29 28 24 15 9 16 11 14 12 21 23 21 18 17 9 12 9 9 9 9 7 7 7 7 7 8 9 9 9 14 13 16 23 28 26 16
46 49 49 46 49 42 56 47 37 39 27 26 20 21 17 15 14 13 16 22 13 12 18 15 6 7 9 9 12 11 9 7 7 8 5 9 10 14 12 16 23 23 26 27 27 21 19
49 50 43 51 46 63 49 40 36 34 24 17 17 21 19 15 13 13 17 18 19 8 3 12 12 13 16 12 9 9 8 7 7 8 5 14 15 10 14 17 25 25 26 27 22 14 13
49 50 52 45 57 52 42 34 31 27 22 20 18 20 19 12 8 8 10 18 13 21 8 11 11 13 16 10 9 8 8 9 8 8 9 13 14 18 14 14 16 14 20 21 22 15 14
47 47 46 43 38 33 30 31 28 23 20 18 20 18 8 1 4 8 7 19 10 14 5 3 7 8 9 11 8 8 8 8 5 4 5 10 9 12 10 14 11 14 10 19 22 9 7
51 52 41 42 29 30 33 25 25 17 21 11 7 4 5 6 4 3 4 2 3 9 4 7 8 6 11 12 4 7 8 7 4 4 5 5 6 10 12 12 13 16 15 10 18 18 17
53 45 38 38 29 33 31 20 24 20 16 8 5 13 10 10 3 5 5 8 9 5 2 7 7 11 13 10 6 7 7 2 1 5 9 10 10 8 8 12 12 15 13 10 15 19 4
50 38 34 36 30 30 30 21 19 19 16 14 14 11 6 11 6 5 7 10 7 3 10 10 9 14 10 6 6 3 2 2 3 3 3 2 5 10 10 13 12 10 8 4 3 1 2
44 35 35 35 28 27 24 20 18 19 18 13 14 16 13 9 7 4 8 11 1 11 13 11 14 13 6 7 3 4 2 1 3 5 8 3 4 5 7 10 3 7 9 5 4 3 3
39 33 37 30 27 25 21 18 20 22 17 16 18 14 10 8 8 7 9 4 7 9 14 16 14 9 8 3 4 4 3 3 1 2 6 5 1 7 5 1 3 2 6 13 6 5 2
32 31 34 30 27 25 18 18 14 17 20 13 16 13 11 7 7 13 9 12 13 15 19 8 6 6 7 4 4 3 3 2 1 2 4 4 4 3 0 9 5 5 10 5 5 5 4
30 31 32 28 27 23 21 19 15 13 14 11 13 15 13 9 9 13 16 11 14 16 10 9 12 8 9 7 2 2 3 4 1 2 5 1 1 6 15 7 10 13 12 8 9 3 2
31 30 29 25 22 21 22 24 24 21 17 15 15 17 15 13 13 10 12 12 12 16 13 13 11 11 7 5 5 4 4 4 3 4 11 12 9 7 7 15 13 17 15 10 5 7 20
35 33 29 21 16 15 21 26 23 20 19 17 19 18 19 15 11 11 10 13 12 13 8 12 8 7 9 3 4 5 6 8 9 11 6 6 6 4 3 6 12 13 18 5 8 5 8
33 32 24 18 17 17 18 21 21 19 19 20 24 19 16 12 10 8 10 10 12 10 12 12 11 11 9 8 6 5 5 7 11 11 9 8 9 10 7 5 10 13 19 12 15 15 22
27 26 14 16 19 20 21 21 16 18 16 14 17 14 11 10 6 6 9 10 8 9 10 12 11 6 8 5 8 5 7 10 12 12 10 8 12 14 11 9 10 13 19 19 18 15 23
23 11 9 15 18 21 20 23 24 18 19 11 12 13 9 10 10 12 13 11 6 9 10 11 9 8 7 7 10 3 5 3 3 9 9 7 5 9 10 9 11 12 13 21 24 22 25
15 6 6 15 20 19 19 21 23 22 19 17 15 12 9 7 9 11 9 11 12 11 9 10 10 6 4 7 7 4 3 1 3 5 5 5 5 5 4 6 5 4 8 12 17 18 15
12 3 9 12 19 22 20 21 18 17 14 14 10 12 13 9 9 10 8 13 15 11 11 10 7 6 6 4 8 4 5 4 5 3 3 5 7 6 3 6 3 3 2 5 11 14 10
12 3 7 10 16 20 20 18 18 17 15 14 15 14 11 7 7 12 11 13 16 11 10 9 6 5 5 3 8 6 8 8 9 3 2 1 5 3 3 5 4 1 3 5 8 8 9
11 7 4 9 11 13 17 17 18 17 14 13 14 14 13 8 7 12 14 15 15 13 11 9 7 6 5 2 5 3 3 3 4 9 5 2 2 2 3 1 2 4 3 5 4 2 7
10 7 3 9 8 8 10 14 13 14 13 12 13 15 14 9 6 11 14 15 16 17 14 9 8 7 6 3 2 1 1 5 2 2 5 2 2 5 4 3 5 8 6 8 5 2 4
11 10 7 8 12 8 7 7 7 10 11 11 11 12 12 9 7 9 11 15 16 15 12 9 8 8 5 3 1 3 2 4 4 7 6 3 3 5 6 5 7 4 9 11 8 5 5
11 10 10 7 12 13 13 11 7 6 6 8 7 7 7 6 6 7 14 16 15 15 11 11 7 8 7 7 5 4 4 6 6 4 6 5 10 5 8 7 8 8 10 14 12 8 8
Wind_Direction
323 321 321 321 319 319 317 314 311 308 307 303 301 298 292 284 276 268 264 253 243 257 243 273 261 272 270 295 273 275 277 281 283 285 285 284 287 289 290 288 279 260 271 268 273 276 262
325 324 325 324 322 319 317 315 313 309 308 305 304 295 294 289 279 272 268 256 248 240 255 261 255 257 265 276 277 277 277 272 278 275 282 285 287 285 282 281 278 288 271 264 259 252 266
326 326 324 321 318 318 321 323 317 312 307 299 292 297 296 292 282 272 264 260 240 233 249 250 265 249 259 255 261 267 267 270 265 268 276 282 293 289 297 300 282 286 275 276 263 261 259
325 325 323 319 319 319 323 326 326 315 300 295 292 286 288 301 288 277 254 252 235 231 243 259 259 256 257 255 256 250 254 254 254 269 273 274 284 284 281 273 256 278 274 270 294 280 262
329 327 322 319 319 315 318 322 320 309 292 291 288 287 290 296 286 274 252 243 234 234 239 249 250 252 248 256 246 246 240 239 246 264 267 260 274 291 273 286 289 271 255 270 297 304 288
326 323 322 314 314 319 321 319 306 292 286 285 282 281 279 287 285 264 204 236 240 230 232 256 247 259 241 239 228 216 225 223 241 261 251 255 274 276 263 257 250 282 299 293 284 288 296
326 324 323 317 306 318 317 318 305 296 300 289 296 293 302 287 280 260 220 207 212 197 211 228 231 217 237 225 215 225 220 209 230 243 229 271 269 263 279 267 272 275 287 289 290 300 281
332 329 320 318 303 325 329 322 315 314 307 299 293 287 291 278 268 255 230 212 241 225 226 234 226 226 237 213 219 216 209 208 234 231 233 259 269 299 279 276 266 264 271 284 291 284 267
333 329 332 325 321 331 329 322 323 321 303 302 291 283 281 257 237 231 213 219 228 234 247 262 244 228 236 209 200 204 199 196 207 239 259 262 267 293 291 279 290 268 265 280 287 297 246
332 333 336 334 335 344 347 338 331 330 318 295 280 290 255 158 199 233 227 247 213 211 185 238 225 229 206 188 202 210 197 196 226 265 252 265 301 285 283 289 270 275 275 278 271 302 263
345 341 342 337 344 359 358 355 352 337 339 307 294 333 129 121 165 196 210 49 182 154 183 173 165 187 165 165 150 195 187 201 183 246 248 249 267 284 271 280 269 270 287 295 293 288 281
344 341 345 342 345 355 357 2 11 24 36 55 48 115 110 134 198 180 156 148 156 163 114 114 145 145 158 166 154 161 186 209 284 240 252 270 272 294 285 285 287 288 288 280 281 276 214
343 344 347 343 355 9 24 37 36 27 32 54 89 120 106 129 136 196 192 133 146 309 123 115 132 137 124 148 162 170 178 93 71 322 290 343 258 271 297 294 288 244 244 271 246 257 5
347 348 350 352 355 13 22 39 43 48 53 71 80 105 117 125 140 174 138 156 290 91 94 109 125 117 108 138 147 182 109 86 279 270 297 279 199 283 298 296 278 217 229 285 332 353 33
352 353 358 360 6 11 23 37 36 37 53 80 105 117 127 123 134 135 133 52 51 94 99 119 106 88 112 87 104 121 123 312 66 275 325 340 311 310 311 314 171 248 276 295 278 265 41
359 359 7 10 13 13 26 41 47 48 55 72 119 111 88 111 139 122 79 49 95 102 122 131 87 100 126 136 112 150 203 167 30 300 293 286 295 337 215 105 80 20 352 350 309 354 51
5 2 8 17 21 26 37 37 49 48 52 88 107 106 101 117 113 109 46 60 91 106 80 66 69 83 121 125 156 263 49 62 353 30 30 17 354 72 66 71 80 33 8 331 305 298 47
7 7 11 24 35 44 55 64 64 71 79 105 121 111 115 111 115 73 54 65 93 113 73 84 73 99 92 85 18 40 75 80 50 14 16 34 81 52 82 71 61 36 360 351 325 22 84
7 8 13 25 44 61 67 80 85 96 104 109 123 111 108 101 100 72 60 84 94 104 57 78 89 93 110 44 88 42 74 65 61 53 42 45 13 5 119 51 45 28 13 61 68 77 34
6 8 13 35 65 83 89 99 108 110 118 118 116 117 112 87 83 75 66 95 84 89 66 91 88 92 55 40 70 84 79 71 54 52 76 54 76 70 83 64 59 39 50 69 77 73 91
0 3 30 57 80 102 121 120 110 110 119 122 111 120 105 99 83 73 95 97 82 102 83 92 89 69 36 76 59 83 79 50 45 46 59 77 75 68 67 70 74 67 64 71 77 101 108
0 7 70 86 96 109 121 119 114 105 94 102 109 112 108 107 84 101 115 105 113 115 98 92 88 87 60 100 56 77 69 63 23 27 35 63 84 73 56 69 71 84 84 90 90 100 115
2 23 98 106 104 110 118 113 112 106 95 88 90 95 116 117 108 104 111 129 149 136 112 124 125 111 86 89 86 60 10 29 14 16 59 52 51 54 28 54 65 21 75 95 111 125 135
3 347 142 136 123 116 113 115 114 110 95 88 84 88 85 100 140 113 131 148 163 156 143 146 143 135 118 88 95 45 27 10 356 349 19 70 17 39 16 9 32 343 130 133 142 153 161
356 311 160 144 135 128 124 118 112 102 104 83 72 60 69 55 137 138 141 152 160 166 160 161 151 129 128 110 55 17 359 9 342 347 306 270 83 354 27 3 316 261 212 188 170 180 194
343 348 162 140 131 132 138 138 119 110 100 87 66 58 51 61 87 146 153 160 167 171 169 169 170 156 148 100 59 23 3 334 322 335 341 259 247 88 333 341 260 261 252 215 200 254 207
319 321 261 188 154 136 136 147 140 122 104 98 75 57 52 56 87 151 156 163 169 172 180 177 182 179 180 108 9 328 287 304 300 287 310 355 241 240 255 262 270 272 257 219 203 206 221
313 304 298 245 225 214 195 178 183 147 121 103 79 66 57 64 92 144 159 161 167 177 174 178 184 199 192 189 190 306 281 288 296 283 281 227 237 230 205 221 252 271 219 209 216 229 247
329 280 286 270 243 243 237 217 225 235 145 118 95 75 61 76 111 146 161 164 170 176 178 185 181 191 198 199 225 244 292 290 292 287 286 237 215 225 217 243 245 262 249 226 237 251 243